Location: ROBOsky.com Wild Flower Ridge Observatory
(43.9736°N, 79.9739°W)
Time: 09:24:48
(UTC-05:00)

USA 129 - Visible Passes

Search period start: 07 December 2016 00:00
Search period end: 17 December 2016 00:00
Orbit: 241 x 674 km, 97.5° (Epoch: 24 April)

Date Brightness Start Highest point End Pass type
(mag) Time Alt. Az. Time Alt. Az. Time Alt. Az.
07 Dec 3.0 06:40:28 10° SSW 06:42:13 22° W 06:42:48 20° WNW visible
08 Dec 4.6 05:41:22 10° ESE 05:42:55 18° ENE 05:42:55 18° ENE visible
09 Dec 2.3 06:06:44 10° SSE 06:08:50 55° ENE 06:09:10 46° NNE visible
10 Dec 2.3 06:32:39 10° S 06:34:41 36° W 06:35:17 29° WNW visible
11 Dec 5.3 05:34:11 10° E 05:35:01 12° ENE 05:35:01 12° ENE visible
11 Dec 3.8 06:59:21 10° SW 07:00:30 13° W 07:01:15 12° WNW visible
12 Dec 3.5 05:58:41 10° SE 06:00:40 30° ENE 06:00:51 30° ENE visible
13 Dec 1.5 06:23:59 10° S 06:26:07 69° WSW 06:26:34 47° NW visible
14 Dec 3.2 06:49:50 10° SSW 06:51:31 20° W 06:52:07 18° WNW visible
15 Dec 4.6 05:49:53 10° ESE 05:51:21 18° ENE 05:51:21 18° ENE visible
16 Dec 2.1 06:14:27 10° SSE 06:16:29 55° ENE 06:16:38 52° NE visible
